Time,TemperatureF,DewpointF,PressureIn,WindDirection,WindDirectionDegrees,WindSpeedMPH,WindSpeedGustMPH,Humidity,HourlyPrecipIn,Conditions,Clouds,dailyrainin,SoftwareType,DateUTC
2014-12-25 00:00:00,75.1,74.2,29.95,SSW,194,2.0,4.0,97,0.00,,---,0.00,VWS V15.00,2014-12-25 05:00:00,
2014-12-25 00:15:00,75.1,74.2,29.95,South,169,2.0,5.0,97,0.00,,---,0.00,VWS V15.00,2014-12-25 05:15:00,
2014-12-25 00:30:00,75.1,74.2,29.95,SSW,211,1.0,6.0,97,0.00,,---,0.00,VWS V15.00,2014-12-25 05:30:00,
2014-12-25 00:45:00,75.1,74.2,29.94,South,182,3.0,6.0,97,0.00,,---,0.00,VWS V15.00,2014-12-25 05:45:00,
2014-12-25 01:00:00,75.1,73.9,29.94,SSW,208,3.0,5.0,96,0.00,,---,0.00,VWS V15.00,2014-12-25 06:00:00,
2014-12-25 01:15:00,74.9,73.7,29.94,SW,229,4.0,6.0,96,0.00,,---,0.00,VWS V15.00,2014-12-25 06:15:00,
2014-12-25 01:30:00,74.9,73.7,29.95,SSE,153,1.0,6.0,96,0.00,,---,0.00,VWS V15.00,2014-12-25 06:30:00,
2014-12-25 01:45:00,75.1,73.6,29.94,South,182,2.0,9.0,95,0.00,,---,0.00,VWS V15.00,2014-12-25 06:45:00,
2014-12-25 02:00:00,75.2,73.7,29.95,SSW,192,3.0,6.0,95,0.00,,---,0.00,VWS V15.00,2014-12-25 07:00:00,
2014-12-25 02:15:00,73.3,71.2,29.99,NNW,334,10.0,22.0,93,0.01,,---,0.01,VWS V15.00,2014-12-25 07:15:00,
2014-12-25 02:30:00,69.8,68.0,30.00,WNW,301,4.0,15.0,94,0.03,,---,0.03,VWS V15.00,2014-12-25 07:30:00,
2014-12-25 02:45:00,67.9,66.4,29.99,NNW,327,3.0,15.0,95,0.05,,---,0.05,VWS V15.00,2014-12-25 07:45:00,
2014-12-25 03:00:00,67.4,66.2,30.01,WNW,290,7.0,10.0,96,0.07,,---,0.07,VWS V15.00,2014-12-25 08:00:00,
2014-12-25 03:15:00,67.1,66.2,30.01,NNW,343,2.0,8.0,97,0.08,,---,0.08,VWS V15.00,2014-12-25 08:15:00,
2014-12-25 03:30:00,66.7,65.5,30.01,NNE,13,2.0,5.0,96,0.08,,---,0.09,VWS V15.00,2014-12-25 08:30:00,
2014-12-25 03:45:00,66.5,65.6,30.01,North,360,1.0,3.0,97,0.08,,---,0.11,VWS V15.00,2014-12-25 08:45:00,
2014-12-25 04:00:00,66.2,65.3,30.00,NNW,344,1.0,3.0,97,0.06,,---,0.11,VWS V15.00,2014-12-25 09:00:00,
2014-12-25 04:15:00,65.9,65.0,30.01,NNW,342,1.0,3.0,97,0.05,,---,0.12,VWS V15.00,2014-12-25 09:15:00,
2014-12-25 04:30:00,65.7,64.8,30.01,NNW,342,0.0,2.0,97,0.05,,---,0.13,VWS V15.00,2014-12-25 09:30:00,
2014-12-25 04:45:00,65.7,64.8,30.01,NNW,342,0.0,1.0,97,0.05,,---,0.14,VWS V15.00,2014-12-25 09:45:00,
2014-12-25 05:00:00,65.7,65.1,30.03,NNW,342,1.0,1.0,98,0.04,,---,0.15,VWS V15.00,2014-12-25 10:00:00,
2014-12-25 05:15:00,65.8,65.2,30.03,NNW,337,0.0,2.0,98,0.04,,---,0.15,VWS V15.00,2014-12-25 10:15:00,
2014-12-25 05:30:00,65.9,65.3,30.04,NNW,337,0.0,1.0,98,0.04,,---,0.16,VWS V15.00,2014-12-25 10:30:00,
2014-12-25 05:45:00,66.0,65.4,30.05,NNW,337,0.0,2.0,98,0.04,,---,0.17,VWS V15.00,2014-12-25 10:45:00,
2014-12-25 06:00:00,65.8,65.2,30.05,West,271,1.0,3.0,98,0.03,,---,0.17,VWS V15.00,2014-12-25 11:00:00,
2014-12-25 06:15:00,65.2,64.6,30.06,WNW,282,1.0,3.0,98,0.03,,---,0.18,VWS V15.00,2014-12-25 11:15:00,
2014-12-25 06:30:00,64.8,64.2,30.08,WSW,253,1.0,3.0,98,0.03,,---,0.18,VWS V15.00,2014-12-25 11:30:00,
2014-12-25 06:45:00,64.5,63.9,30.08,WNW,296,1.0,5.0,98,0.03,,---,0.19,VWS V15.00,2014-12-25 11:45:00,
2014-12-25 07:00:00,64.0,63.1,30.08,NNW,327,0.0,3.0,97,0.02,,---,0.19,VWS V15.00,2014-12-25 12:00:00,
2014-12-25 07:15:00,63.8,62.9,30.09,NNW,327,1.0,2.0,97,0.03,,---,0.20,VWS V15.00,2014-12-25 12:15:00,
2014-12-25 07:30:00,63.9,63.3,30.10,NW,310,1.0,4.0,98,0.02,,---,0.20,VWS V15.00,2014-12-25 12:30:00,
2014-12-25 07:45:00,64.0,63.4,30.11,NW,318,1.0,3.0,98,0.03,,---,0.21,VWS V15.00,2014-12-25 12:45:00,
2014-12-25 08:00:00,64.1,63.5,30.11,WNW,290,2.0,4.0,98,0.02,,---,0.21,VWS V15.00,2014-12-25 13:00:00,
2014-12-25 08:15:00,64.5,63.9,30.13,NW,322,3.0,4.0,98,0.03,,---,0.22,VWS V15.00,2014-12-25 13:15:00,
2014-12-25 08:30:00,65.0,64.4,30.13,NW,318,2.0,4.0,98,0.02,,---,0.22,VWS V15.00,2014-12-25 13:30:00,
2014-12-25 08:45:00,65.2,64.0,30.14,NNW,327,3.0,8.0,96,0.03,,---,0.23,VWS V15.00,2014-12-25 13:45:00,
2014-12-25 09:00:00,65.2,63.7,30.16,North,355,1.0,8.0,95,0.02,,---,0.23,VWS V15.00,2014-12-25 14:00:00,
2014-12-25 09:15:00,65.3,63.5,30.16,NNW,331,4.0,11.0,94,0.03,,---,0.24,VWS V15.00,2014-12-25 14:15:00,
2014-12-25 09:30:00,65.4,63.3,30.17,WNW,303,4.0,13.0,93,0.02,,---,0.24,VWS V15.00,2014-12-25 14:30:00,
2014-12-25 09:45:00,66.1,64.0,30.17,NNW,335,3.0,11.0,93,0.03,,---,0.25,VWS V15.00,2014-12-25 14:45:00,
2014-12-25 10:00:00,67.0,63.3,30.18,North,355,3.0,13.0,88,0.02,,---,0.25,VWS V15.00,2014-12-25 15:00:00,
2014-12-25 10:15:00,66.7,62.7,30.19,NNW,331,2.0,11.0,87,0.03,,---,0.26,VWS V15.00,2014-12-25 15:15:00,
2014-12-25 10:30:00,66.5,62.8,30.19,NNE,13,6.0,11.0,88,0.02,,---,0.26,VWS V15.00,2014-12-25 15:30:00,
2014-12-25 10:45:00,67.6,63.6,30.18,NNW,338,3.0,12.0,87,0.03,,---,0.27,VWS V15.00,2014-12-25 15:45:00,
2014-12-25 11:00:00,67.7,62.7,30.18,NW,316,10.0,14.0,84,0.02,,---,0.27,VWS V15.00,2014-12-25 16:00:00,
2014-12-25 11:15:00,68.2,63.2,30.18,North,5,10.0,12.0,84,0.03,,---,0.28,VWS V15.00,2014-12-25 16:15:00,
2014-12-25 11:30:00,67.7,62.7,30.18,North,360,4.0,12.0,84,0.02,,---,0.28,VWS V15.00,2014-12-25 16:30:00,
2014-12-25 11:45:00,66.8,61.8,30.17,NNE,28,2.0,13.0,84,0.03,,---,0.29,VWS V15.00,2014-12-25 16:45:00,
2014-12-25 12:00:00,68.2,61.1,30.17,NW,323,5.0,13.0,78,0.02,,---,0.29,VWS V15.00,2014-12-25 17:00:00,
2014-12-25 12:15:00,69.8,58.4,30.17,NNW,348,7.0,12.0,67,0.03,,---,0.30,VWS V15.00,2014-12-25 17:15:00,
2014-12-25 12:30:00,70.3,57.6,30.16,North,360,4.0,15.0,64,0.02,,---,0.30,VWS V15.00,2014-12-25 17:30:00,
2014-12-25 12:45:00,70.1,55.6,30.16,NW,321,16.0,16.0,60,0.02,,---,0.30,VWS V15.00,2014-12-25 17:45:00,
2014-12-25 13:00:00,70.4,56.8,30.15,NNW,345,7.0,20.0,62,0.02,,---,0.31,VWS V15.00,2014-12-25 18:00:00,
2014-12-25 13:15:00,70.7,55.7,30.15,NNE,32,14.0,17.0,59,0.02,,---,0.31,VWS V15.00,2014-12-25 18:15:00,
2014-12-25 13:30:00,71.4,55.9,30.13,NNE,30,6.0,15.0,58,0.02,,---,0.32,VWS V15.00,2014-12-25 18:30:00,
2014-12-25 13:45:00,71.8,53.8,30.14,North,5,11.0,18.0,53,0.02,,---,0.32,VWS V15.00,2014-12-25 18:45:00,
2014-12-25 14:00:00,73.0,55.4,30.13,NNW,342,6.0,16.0,54,0.02,,---,0.32,VWS V15.00,2014-12-25 19:00:00,
2014-12-25 14:15:00,73.1,57.0,30.13,North,349,5.0,14.0,57,0.02,,---,0.33,VWS V15.00,2014-12-25 19:15:00,
2014-12-25 14:30:00,71.5,56.0,30.14,NNE,16,7.0,19.0,58,0.02,,---,0.33,VWS V15.00,2014-12-25 19:30:00,
2014-12-25 14:45:00,71.2,56.2,30.14,North,360,5.0,16.0,59,0.02,,---,0.34,VWS V15.00,2014-12-25 19:45:00,
2014-12-25 15:00:00,71.2,56.2,30.14,North,9,5.0,15.0,59,0.02,,---,0.34,VWS V15.00,2014-12-25 20:00:00,
2014-12-25 15:15:00,70.8,55.8,30.14,NNE,20,9.0,15.0,59,0.02,,---,0.34,VWS V15.00,2014-12-25 20:15:00,
2014-12-25 15:30:00,70.3,56.7,30.14,NNE,17,5.0,15.0,62,0.02,,---,0.35,VWS V15.00,2014-12-25 20:30:00,
2014-12-25 15:45:00,69.7,57.4,30.14,North,5,7.0,13.0,65,0.02,,---,0.35,VWS V15.00,2014-12-25 20:45:00,
2014-12-25 16:00:00,69.5,57.7,30.14,NNE,26,3.0,12.0,66,0.01,,---,0.35,VWS V15.00,2014-12-25 21:00:00,
2014-12-25 16:15:00,69.4,58.0,30.15,NNE,18,5.0,13.0,67,0.02,,---,0.36,VWS V15.00,2014-12-25 21:15:00,
2014-12-25 16:30:00,69.2,58.2,30.15,North,5,3.0,12.0,68,0.02,,---,0.36,VWS V15.00,2014-12-25 21:30:00,
2014-12-25 16:45:00,68.9,58.7,30.15,North,5,5.0,10.0,70,0.01,,---,0.36,VWS V15.00,2014-12-25 21:45:00,
2014-12-25 17:00:00,68.5,58.7,30.16,NNE,28,4.0,12.0,71,0.01,,---,0.36,VWS V15.00,2014-12-25 22:00:00,
2014-12-25 17:15:00,68.2,58.5,30.16,NNE,24,2.0,7.0,71,0.02,,---,0.37,VWS V15.00,2014-12-25 22:15:00,